STARLINK-36517, 67454

Orbit data source: Space-Track

STARLINK-36517, 67454 is a payload satellite owned by SpaceX/Seattle (US) in LEO that was launched on Wed, 14 Jan 2026 UTC via an FALCON 9 launch vehicle from the Air Force Eastern Test Range (AFETR). Payload-class satellites include a variety of spacecraft equipped with specific instruments for various scientific and technological missions. These include communications satellites like Starlink; space stations such as the ISS; scientific satellites like the Hubble; Earth observation satellites from companies like Planet Labs, Umbra, and HawkEye 360; GPS; miniature CubeSats for education and research; and military/defense satellites.

Loading next visibility...
Identifier
67454, 2026-008K
Orbit
LEO
Country
Flag of USUS
Related business
Manufacturer
SpaceX/Seattle
Mission
Operational spacecraft
Bus & Motor
STARLINK V2MO, Unknown motor
Mass
575 kg wet, ~530 kg dry
Launch date (UTC)
2026-01-14 (2 months ago)
Launch vehicle
FALCON 9
Launch site
Air Force Eastern Test Range (AFETR)
Object type
Payload
Rocket body
Debris
Shape & HBR
Unknown shape, 17.7 m
Radar Cross Section
RCS unknown

Expand to show TLE details & history
Last TLE update: 19 hours ago

TLE from 19 hours ago
0 STARLINK-36517
1 67454U 26008K   26062.50566613  .00030840  00000-0  11247-2 0  9992
2 67454  42.9986 240.3951 0003162 283.0706  76.9793 15.27600656  8623
Epoch: 2026-03-03T12:08Z
TLE epoch observation values (Epoch: 2026-03-03T12:08:09.553Z)
Latitude
Longitude
-102.92846°
Altitude
482.274 km
Speed
7.626 km/s
True Right ascension
16h 01m 34s
True Declination
0° 00' 00"
Sunlit
Object was in daylight at epoch
Visualization orbit readout
Latitude
Unknown
Longitude
Unknown
Altitude
Unknown
Speed
Unknown
Apparent Right ascension
Unknown
Apparent Declination
Unknown
Sunlit
N/A
Visualization observer readout
Local Sidereal Time
11:20:18
Azimuth
Unknown
Elevation
Unknown
Doppler factor
Unknown
Orbital elements
Apogee altitude
487.103 km
Perigee altitude
482.763 km
Semi-major axis
6,863.07 km
Eccentricity
0.00032
Inclination
42.9986°
RAAN
240.3951°
Arg. of periapsis
283.0706°
True anomaly
77.01461°
Mean anomaly
76.9793°
Eccentric anomaly
76.99695°
Mean motion
3.81738 °/min
Orbital period
94.31 mins
BSTAR
0.0011247
Loading maneuver chart data...
Computing Atmospheric mass density...
Loading historical data...
Loading historical data...
Loading historical data...
Loading historical data...
Loading historical data...
Loading historical data...
Loading historical data...

Documentation

Showing up to 5 results
|